User: anonymous   Login
Location: Lourdes
(43.1000°N, 0.0500°W)
Time: 02:39:02
(UTC+00:00)
Language:

SL-24 R/B - Orbit

View from above orbital plane
View from above orbital plane
View from above satellite
View from above satellite

Ground track
Ground track

The orbit data is extracted from the following two-line orbital elements,

1 31699U 07026B   21060.47743932  .00000100  00000-0  23325-4 0  9991
2 31699  97.4381 237.3308 0348055 233.0177 142.5098 14.41423817720605
Epoch (UTC): 01 March 2021 11:27:30
Eccentricity: 0.0348055
inclination: 97.4381°
perigee height: 505 km
apogee height: 1002 km
right ascension of ascending node: 237.3308°
argument of perigee: 233.0177°
revolutions per day: 14.41423817
mean anomaly at epoch: 142.5098°
orbit number at epoch: 72060

The dashed part of the orbit path shows where the satellite is in the earth's shadow,  

DLR